******************************************************************************* JPL/HORIZONS PANSTARRS (C/2012 K1) 2025-Dec-12 17:55:58 Rec #:90004166 (+COV) Soln.date: 2021-Apr-15_23:32:09 # obs: 7829 (2012-2016) IAU76/J2000 helio. ecliptic osc. elements (au, days, deg., period=Julian yrs): EPOCH= 2456697.5 ! 2014-Feb-09.0000000 (TDB) RMSW= n.a. EC= 1.000152915493971 QR= 1.054597098294 TP= 2456897.1603630064 OM= 317.7376491689354 W= 203.1066008825931 IN= 142.4282581726916 A= -6896.600670785898 MA= -.000343592211060930ADIST= 9.999999E99 PER= 9.999999E99 N= 1.721E-6 ANGMOM= .024983675 DAN= 26.3396 DDN= 1.09867 L= 119.053325 B= -13.8448678 MOID= .107091 TP= 2014-Aug-27.6603630064 Comet physical (GM= km^3/s^2; RAD= km): GM= n.a. RAD= n.a. M1= 7.3 M2= n.a. k1= 6.75 k2= n.a. PHCOF= n.a. Comet non-gravitational force model (AMRAT=m^2/kg;A1-A3=au/d^2;DT=days;R0=au): AMRAT= 0. DT= 4.100959 A1= 2.210287094116E-8 A2= -1.588305383921E-9 A3= -2.629981637001E-9 Standard model: ALN= .1112620426 NK= 4.6142 NM= 2.15 NN= 5.093 R0= 2.808 COMET comments 1: soln ref.= JPL#126, data arc: 2012-05-14 to 2016-08-07 2: k1=6.75; ******************************************************************************* ******************************************************************************* Ephemeris / WWW_USER Fri Dec 12 17:55:58 2025 Pasadena, USA / Horizons ******************************************************************************* Target body name: PANSTARRS (C/2012 K1) {source: JPL#126} Center body name: Solar System Barycenter (0) {source: DE441} Center-site name: BODY CENTER ******************************************************************************* Start time : A.D. 1950-Jan-01 00:00:00.0000 TDB Stop time : A.D. 2050-Jan-01 00:00:00.0000 TDB Step-size : 100 calendar years ******************************************************************************* Center geodetic : 0.0, 0.0, 0.0 {E-lon(deg),Lat(deg),Alt(km)} Center cylindric: 0.0, 0.0, 0.0 {E-lon(deg),Dxy(km),Dz(km)} Center radii : (undefined) Keplerian GM : 2.9630927493968080E-04 au^3/d^2 Small perturbers: Yes {source: SB441-N16} Output units : AU-D, deg, Julian Day Number (Tp) Calendar mode : Mixed Julian/Gregorian Output type : GEOMETRIC osculating elements Output format : 10 Reference frame : Ecliptic of J2000.0 ******************************************************************************* Initial IAU76/J2000 heliocentric ecliptic osculating elements (au, days, deg.): EPOCH= 2456697.5 ! 2014-Feb-09.0000000 (TDB) RMSW= n.a. EC= 1.000152915493971 QR= 1.054597098294 TP= 2456897.1603630064 OM= 317.7376491689354 W= 203.1066008825931 IN= 142.4282581726916 Equivalent ICRF heliocentric cartesian coordinates (au, au/d): X=-1.821641474727969E+00 Y=-2.202342862179771E+00 Z= 1.063754492662950E+00 VX= 1.084992102758153E-03 VY= 1.374692170483312E-02 VZ=-1.987950042808414E-03 Comet physical (GM= km^3/s^2; RAD= km): GM= n.a. RAD= n.a. M1= 7.3 M2= n.a. k1= 6.75 k2= n.a. PHCOF= n.a. Comet non-gravitational force model (AMRAT=m^2/kg;A1-A3=au/d^2;DT=days;R0=au): AMRAT= 0. DT= 4.100959 A1= 2.210287094116E-8 A2= -1.588305383921E-9 A3= -2.629981637001E-9 Standard model: ALN= .1112620426 NK= 4.6142 NM= 2.15 NN= 5.093 R0= 2.808 ******************************************************************************* JDTDB EC QR IN OM W Tp N MA TA A AD PR ******************************************************************************* $$SOE 2433282.500000000 = A.D. 1950-Jan-01 00:00:00.0000 TDB EC= 9.999597123735796E-01 QR= 1.051163591364234E+00 IN= 1.424175681758273E+02 OM= 3.176587910764626E+02 W = 2.031472903756296E+02 Tp= 2456896.900826320518 N = 2.340169486220695E-07 MA= 3.599944738299751E+02 TA= 1.924308342501876E+02 A = 2.609147484633662E+04 AD= 5.218189852908187E+04 PR= 1.538350115749050E+09 2469807.500000000 = A.D. 2050-Jan-01 00:00:00.0000 TDB EC= 9.998537180140484E-01 QR= 1.053161934451167E+00 IN= 1.424284667305346E+02 OM= 3.177786114868358E+02 W = 2.030487822463247E+02 Tp= 2456897.165281141177 N = 1.614502778009276E-06 MA= 2.084377126863169E-02 TA= 1.647387462981148E+02 A = 7.199532653326264E+03 AD= 1.439801214471808E+04 PR= 2.229788668706345E+08 $$EOE ******************************************************************************* TIME Barycentric Dynamical Time ("TDB" or T_eph) output was requested. This continuous coordinate time is equivalent to the relativistic proper time of a clock at rest in a reference frame co-moving with the solar system barycenter but outside the system's gravity well. It is the independent variable in the solar system relativistic equations of motion. TDB runs at a uniform rate of one SI second per second and is independent of irregularities in Earth's rotation. CALENDAR SYSTEM Mixed calendar mode was active such that calendar dates after AD 1582-Oct-15 (if any) are in the modern Gregorian system. Dates prior to 1582-Oct-5 (if any) are in the Julian calendar system, which is automatically extended for dates prior to its adoption on 45-Jan-1 BC. The Julian calendar is useful for matching historical dates. The Gregorian calendar more accurately corresponds to the Earth's orbital motion and seasons. A "Gregorian-only" calendar mode is available if such physical events are the primary interest. REFERENCE FRAME AND COORDINATES Ecliptic at the standard reference epoch Reference epoch: J2000.0 X-Y plane: adopted Earth orbital plane at the reference epoch Note: IAU76 obliquity of 84381.448 arcseconds wrt ICRF X-Y plane X-axis : ICRF Z-axis : perpendicular to the X-Y plane in the directional (+ or -) sense of Earth's north pole at the reference epoch. Symbol meaning [1 au= 149597870.700 km, 1 day= 86400.0 s]: JDTDB Julian Day Number, Barycentric Dynamical Time EC Eccentricity, e QR Periapsis distance, q (au) IN Inclination w.r.t X-Y plane, i (degrees) OM Longitude of Ascending Node, OMEGA, (degrees) W Argument of Perifocus, w (degrees) Tp Time of periapsis (Julian Day Number) N Mean motion, n (degrees/day) MA Mean anomaly, M (degrees) TA True anomaly, nu (degrees) A Semi-major axis, a (au) AD Apoapsis distance (au) PR Sidereal orbit period (day) ABERRATIONS AND CORRECTIONS Geometric osculating elements have NO corrections or aberrations applied. Computations by ... Solar System Dynamics Group, Horizons On-Line Ephemeris System 4800 Oak Grove Drive, Jet Propulsion Laboratory Pasadena, CA 91109 USA General site: https://ssd.jpl.nasa.gov/ Mailing list: https://ssd.jpl.nasa.gov/email_list.html System news : https://ssd.jpl.nasa.gov/horizons/news.html User Guide : https://ssd.jpl.nasa.gov/horizons/manual.html Connect : browser https://ssd.jpl.nasa.gov/horizons/app.html#/x API https://ssd-api.jpl.nasa.gov/doc/horizons.html command-line telnet ssd.jpl.nasa.gov 6775 e-mail/batch https://ssd.jpl.nasa.gov/ftp/ssd/horizons_batch.txt scripts https://ssd.jpl.nasa.gov/ftp/ssd/SCRIPTS Author : Jon.D.Giorgini@jpl.nasa.gov ******************************************************************************* !$$SOF CENTER = '@0' COMMAND = '2012 K1' OUT_UNITS = 'AU-D' START_TIME = '1950-01-01' STEP_SIZE = '100 years' STOP_TIME = '2050-01-01' TABLE_TYPE = 'ELEMENTS'